Starlink 31611

operational
NORAD ID: 59325 Int'l Des: 2024-057 Owner: SPXS Country: US Constellation: starlink
LEOCIRCULAR

关于 Starlink 31611

正在加载描述...

实时位置

正在加载3D地球...

即将过境

高度历史

Altitude vs Time

uPlot chart will show altitude changes over time

两行轨道根数

1 59325U 24057F 25258.97250017 .00025173 00000-0 92482-3 0 9991
2 59325 43.0024 94.1884 0000152 42.0677 318.0186 15.27450028 83111
Epoch: Sep 15, 2025 • Age: 21 hours

当前状态

高度 482.5 km
速度 7.63 km/s
星下点 17.04°N, 52.12°W
发射日期 Mar 25, 2024
运行时间 1.4 years
类型 internet

技术详情

分类 Payload
质量 730.00 kg
干质量 700.00 kg
总质量 730.00 kg
长度 0.30 m
直径 4.10 m
跨度 29.00 m
形状 Box + pan
制造商 SPXS
平台类型 Starlink V2M
阶段状态 In Orbit
所有者/国家 SPXS/US

大型星座

Loading constellations...